TimeEDT,TemperatureF,Dew PointF,Humidity,Sea Level PressureIn,VisibilityMPH,Wind Direction,Wind SpeedMPH,Gust SpeedMPH,PrecipitationIn,Events,Conditions,WindDirDegrees,DateUTC
12:15 AM,68.0,68.0,100,29.98,9.0,Calm,Calm,-,N/A,,Clear,0,2013-06-13 04:15:00
12:35 AM,68.0,66.2,94,29.97,7.0,Calm,Calm,-,N/A,,Clear,0,2013-06-13 04:35:00
12:55 AM,66.2,66.2,100,29.97,5.0,Calm,Calm,-,N/A,,Clear,0,2013-06-13 04:55:00
1:15 AM,66.2,66.2,100,29.97,3.0,Calm,Calm,-,N/A,,Clear,0,2013-06-13 05:15:00
1:35 AM,66.2,66.2,100,29.97,4.0,Calm,Calm,-,N/A,,Clear,0,2013-06-13 05:35:00
1:55 AM,66.2,66.2,100,29.97,3.0,Calm,Calm,-,N/A,,Clear,0,2013-06-13 05:55:00
2:15 AM,66.2,66.2,100,29.97,5.0,Calm,Calm,-,N/A,,Clear,0,2013-06-13 06:15:00
2:35 AM,66.2,66.2,100,29.98,4.0,Calm,Calm,-,N/A,,Partly Cloudy,0,2013-06-13 06:35:00
2:55 AM,66.2,66.2,100,29.97,7.0,Calm,Calm,-,N/A,,Scattered Clouds,0,2013-06-13 06:55:00
3:15 AM,66.2,66.2,100,29.97,6.0,Calm,Calm,-,N/A,,Partly Cloudy,0,2013-06-13 07:15:00
3:35 AM,66.2,66.2,100,29.96,5.0,Calm,Calm,-,N/A,,Scattered Clouds,0,2013-06-13 07:35:00
3:55 AM,66.2,66.2,100,29.96,7.0,Calm,Calm,-,N/A,,Overcast,0,2013-06-13 07:55:00
4:15 AM,68.0,66.2,94,29.96,8.0,Calm,Calm,-,N/A,,Scattered Clouds,0,2013-06-13 08:15:00
4:35 AM,66.2,66.2,100,29.95,7.0,Calm,Calm,-,N/A,,Clear,0,2013-06-13 08:35:00
4:55 AM,66.2,64.4,94,29.95,10.0,Calm,Calm,-,N/A,,Clear,0,2013-06-13 08:55:00
5:15 AM,69.8,64.4,83,29.94,10.0,West,5.8,-,N/A,,Clear,280,2013-06-13 09:15:00
5:35 AM,71.6,66.2,83,29.93,10.0,West,5.8,-,N/A,,Partly Cloudy,270,2013-06-13 09:35:00
5:55 AM,71.6,66.2,83,29.93,10.0,West,4.6,-,N/A,,Scattered Clouds,270,2013-06-13 09:55:00
6:15 AM,71.6,66.2,83,29.92,10.0,West,4.6,-,N/A,,Mostly Cloudy,280,2013-06-13 10:15:00
6:35 AM,73.4,66.2,78,29.92,10.0,West,8.1,-,N/A,,Overcast,280,2013-06-13 10:35:00
6:55 AM,73.4,66.2,78,29.92,10.0,West,8.1,-,N/A,,Overcast,270,2013-06-13 10:55:00
7:15 AM,73.4,66.2,78,29.91,10.0,West,9.2,-,N/A,,Overcast,260,2013-06-13 11:15:00
7:35 AM,73.4,66.2,78,29.91,10.0,West,11.5,-,N/A,,Overcast,270,2013-06-13 11:35:00
7:55 AM,73.4,66.2,78,29.91,10.0,WSW,6.9,-,N/A,,Overcast,250,2013-06-13 11:55:00
8:15 AM,75.2,66.2,73,29.91,10.0,Variable,6.9,-,N/A,,Overcast,0,2013-06-13 12:15:00
8:35 AM,75.2,66.2,73,29.90,10.0,West,8.1,-,N/A,,Overcast,270,2013-06-13 12:35:00
8:55 AM,75.2,68.0,78,29.90,10.0,WSW,10.4,-,N/A,,Mostly Cloudy,250,2013-06-13 12:55:00
9:15 AM,77.0,68.0,74,29.89,10.0,WSW,10.4,-,N/A,,Mostly Cloudy,250,2013-06-13 13:15:00
9:35 AM,77.0,68.0,74,29.88,10.0,WSW,11.5,-,N/A,,Mostly Cloudy,250,2013-06-13 13:35:00
9:55 AM,78.8,68.0,69,29.87,10.0,WSW,9.2,-,N/A,,Mostly Cloudy,240,2013-06-13 13:55:00
10:15 AM,78.8,68.0,69,29.86,10.0,WSW,15.0,-,N/A,,Mostly Cloudy,250,2013-06-13 14:15:00
10:35 AM,77.0,66.2,69,29.84,10.0,WSW,13.8,-,N/A,,Overcast,250,2013-06-13 14:35:00
10:55 AM,78.8,66.2,65,29.84,10.0,West,13.8,-,N/A,,Overcast,260,2013-06-13 14:55:00
11:15 AM,78.8,66.2,65,29.83,10.0,West,11.5,-,N/A,,Overcast,260,2013-06-13 15:15:00
11:35 AM,78.8,68.0,69,29.83,10.0,WSW,10.4,-,N/A,,Overcast,250,2013-06-13 15:35:00
11:55 AM,80.6,69.8,70,29.83,10.0,WSW,9.2,-,N/A,,Mostly Cloudy,250,2013-06-13 15:55:00
12:15 PM,80.6,68.0,65,29.82,10.0,WSW,11.5,-,N/A,,Mostly Cloudy,250,2013-06-13 16:15:00
12:35 PM,80.6,69.8,70,29.80,10.0,SW,15.0,-,N/A,,Mostly Cloudy,230,2013-06-13 16:35:00
12:55 PM,82.4,69.8,66,29.80,9.0,West,20.7,24.2,N/A,,Scattered Clouds,260,2013-06-13 16:55:00
1:15 PM,80.6,69.8,70,29.79,10.0,WSW,15.0,-,N/A,,Mostly Cloudy,250,2013-06-13 17:15:00
1:35 PM,80.6,69.8,70,29.80,10.0,WSW,11.5,-,N/A,,Mostly Cloudy,250,2013-06-13 17:35:00
1:55 PM,78.8,69.8,74,29.79,10.0,WSW,11.5,-,N/A,,Mostly Cloudy,250,2013-06-13 17:55:00
2:15 PM,77.0,69.8,78,29.80,7.0,WNW,9.2,-,N/A,,Drizzle,300,2013-06-13 18:15:00
2:35 PM,71.6,68.0,88,29.84,6.0,WSW,12.7,-,N/A,Rain,Light Rain,250,2013-06-13 18:35:00
2:55 PM,69.8,66.2,88,29.83,10.0,SW,8.1,-,N/A,,Mostly Cloudy,230,2013-06-13 18:55:00
3:15 PM,69.8,64.4,83,29.82,10.0,NNE,5.8,-,N/A,,Mostly Cloudy,20,2013-06-13 19:15:00
3:35 PM,66.2,64.4,94,29.90,6.0,WSW,6.9,25.3,N/A,Rain,Light Rain,240,2013-06-13 19:35:00
3:55 PM,66.2,64.4,94,29.86,9.0,Calm,Calm,-,N/A,Rain,Light Rain,0,2013-06-13 19:55:00
4:15 PM,66.2,64.4,94,29.84,10.0,Calm,Calm,-,N/A,,Light Drizzle,0,2013-06-13 20:15:00
4:35 PM,66.2,66.2,100,29.84,10.0,Calm,Calm,-,N/A,,Mostly Cloudy,0,2013-06-13 20:35:00
4:55 PM,66.2,64.4,94,29.84,10.0,North,4.6,-,N/A,,Mostly Cloudy,350,2013-06-13 20:55:00
5:15 PM,66.2,64.4,94,29.84,10.0,NW,4.6,-,N/A,,Mostly Cloudy,320,2013-06-13 21:15:00
5:35 PM,68.0,64.4,88,29.83,10.0,West,6.9,-,N/A,,Partly Cloudy,270,2013-06-13 21:35:00
5:55 PM,69.8,66.2,88,29.83,10.0,West,6.9,-,N/A,,Scattered Clouds,260,2013-06-13 21:55:00
6:15 PM,69.8,64.4,83,29.82,10.0,West,5.8,-,N/A,,Mostly Cloudy,260,2013-06-13 22:15:00
6:35 PM,69.8,64.4,83,29.83,10.0,WSW,4.6,-,N/A,,Mostly Cloudy,240,2013-06-13 22:35:00
6:55 PM,69.8,64.4,83,29.83,10.0,West,3.5,-,N/A,,Overcast,270,2013-06-13 22:55:00
7:15 PM,69.8,64.4,83,29.84,10.0,WSW,5.8,-,N/A,,Overcast,240,2013-06-13 23:15:00
7:35 PM,69.8,64.4,83,29.84,10.0,WSW,5.8,-,N/A,,Mostly Cloudy,250,2013-06-13 23:35:00
7:55 PM,69.8,64.4,83,29.85,10.0,WSW,6.9,-,N/A,,Overcast,250,2013-06-13 23:55:00
8:15 PM,69.8,64.4,83,29.85,10.0,Calm,Calm,-,N/A,,Overcast,0,2013-06-14 00:15:00
8:35 PM,68.0,64.4,88,29.85,10.0,Calm,Calm,-,N/A,,Overcast,0,2013-06-14 00:35:00
8:55 PM,66.2,66.2,100,29.85,10.0,Calm,Calm,-,N/A,,Overcast,0,2013-06-14 00:55:00
9:15 PM,66.2,66.2,100,29.86,5.0,West,4.6,-,N/A,Rain,Light Rain,270,2013-06-14 01:15:00
9:35 PM,66.2,64.4,94,29.86,7.0,WNW,4.6,-,N/A,,Light Drizzle,290,2013-06-14 01:35:00
9:55 PM,66.2,64.4,94,29.87,10.0,West,3.5,-,N/A,,Overcast,270,2013-06-14 01:55:00
10:15 PM,66.2,64.4,94,29.88,10.0,West,4.6,-,N/A,,Light Drizzle,280,2013-06-14 02:15:00
10:35 PM,66.2,64.4,94,29.89,10.0,WNW,5.8,-,N/A,,Mostly Cloudy,290,2013-06-14 02:35:00
10:55 PM,66.2,57.2,73,29.90,10.0,North,8.1,-,N/A,,Light Drizzle,10,2013-06-14 02:55:00
11:15 PM,64.4,57.2,77,29.91,10.0,Variable,5.8,-,N/A,,Scattered Clouds,0,2013-06-14 03:15:00
11:35 PM,64.4,55.4,73,29.92,10.0,Variable,4.6,-,N/A,,Scattered Clouds,0,2013-06-14 03:35:00
11:55 PM,64.4,55.4,73,29.93,10.0,Variable,3.5,-,N/A,,Mostly Cloudy,0,2013-06-14 03:55:00